This is the latest recevied weather packets stored in our database for station/object KD2DXJ. If no packets are shown the sender has not sent any weather packets the latest 10 day(s).
| Time | Temp. | Humidity | Pressure | Rain* | Wind** | Luminosity | Snow |
|---|---|---|---|---|---|---|---|
| 1777909016 | 16.11° C | 54% | 1005.1 hPa | 0 mm | - | 627 W/m² | - |
| 1777908714 | 16.67° C | 53% | 1005.2 hPa | 0 mm | - | 626 W/m² | - |
| 1777908411 | 16.11° C | 54% | 1005.1 hPa | 0 mm | - | 620 W/m² | - |
| 1777908107 | 15.56° C | 60% | 1005.1 hPa | 0 mm | - | 613 W/m² | - |
| 1777907804 | 15.56° C | 57% | 1005.2 hPa | 0 mm | - | 608 W/m² | - |
| 1777907499 | 16.11° C | 56% | 1005.3 hPa | 0 mm | - | 602 W/m² | - |
| 1777907196 | 16.11° C | 59% | 1005.3 hPa | 0 mm | - | 592 W/m² | - |
| 1777906893 | 15.56° C | 58% | 1005.1 hPa | 0 mm | - | 587 W/m² | - |
| 1777906590 | 15° C | 59% | 1005.3 hPa | 0 mm | - | 569 W/m² | - |
| 1777906285 | 15° C | 58% | 1005.1 hPa | 0 mm | - | 550 W/m² | - |
| 1777905982 | 15° C | 58% | 1005.3 hPa | 0 mm | - | 548 W/m² | - |
| 1777905679 | 14.44° C | 60% | 1005.3 hPa | 0 mm | - | 508 W/m² | - |
| 1777905376 | 15° C | 61% | 1005.4 hPa | 0 mm | - | 493 W/m² | - |
| 1777905074 | 13.89° C | 61% | 1005.4 hPa | 0 mm | - | 521 W/m² | - |
| 1777904771 | 13.89° C | 66% | 1005.4 hPa | 0 mm | - | 544 W/m² | - |
| 1777904468 | 13.33° C | 65% | 1005.4 hPa | 0 mm | - | 521 W/m² | - |
| 1777904164 | 13.33° C | 69% | 1005.6 hPa | 0 mm | - | 378 W/m² | - |
| 1777903861 | 12.78° C | 71% | 1005.4 hPa | 0 mm | - | 458 W/m² | - |
| 1777903558 | 12.22° C | 67% | 1005.6 hPa | 0 mm | - | 490 W/m² | - |
| 1777903254 | 12.22° C | 71% | 1005.5 hPa | 0 mm | - | 252 W/m² | - |
| 1777902950 | 11.67° C | 71% | 1005.8 hPa | 0 mm | - | 231 W/m² | - |
| 1777902647 | 11.67° C | 71% | 1005.7 hPa | 0 mm | - | 246 W/m² | - |
| 1777902344 | 11.67° C | 73% | 1005.9 hPa | 0 mm | - | 186 W/m² | - |
| 1777902042 | 11.11° C | 73% | 1005.7 hPa | 0 mm | - | 167 W/m² | - |
| 1777901740 | 11.11° C | 74% | 1005.7 hPa | 0 mm | - | 142 W/m² | - |
* Rain latest hour (hover to see other rain measurements)
** Current wind speed in m/s (hover to see current wind gust speed)